User: anonymous   Login
Location: Unspecified
(0.0000°N, 0.0000°E)
Time: 15:10:52
(UTC+00:00)
Language:

Tsikada - Orbit

View from above orbital plane
View from above orbital plane
View from above satellite
View from above satellite

Ground track
Ground track

The orbit data is extracted from the following two-line orbital elements,

1 23463U 95002A   18051.66105720 +.00000034 +00000-0 +20617-4 0  9993
2 23463 082.9257 102.4282 0037580 298.9651 175.2017 13.72481650155905
Epoch (UTC): 20 February 2018 15:51:55
Eccentricity: 0.0037580
inclination: 82.9257°
perigee height: 963 km
apogee height: 1018 km
right ascension of ascending node: 102.4282°
argument of perigee: 298.9651°
revolutions per day: 13.72481650
mean anomaly at epoch: 175.2017°
orbit number at epoch: 15590

The dashed part of the orbit path shows where the satellite is in the earth's shadow,  

DLR